TimeEST,TemperatureF,Dew PointF,Humidity,Sea Level PressureIn,VisibilityMPH,Wind Direction,Wind SpeedMPH,Gust SpeedMPH,PrecipitationIn,Events,Conditions,WindDirDegrees,DateUTC
12:15 AM,51.8,42.8,71,30.03,10.0,SSE,13.8,19.6,N/A,,Clear,150,2013-11-17 05:15:00
12:35 AM,51.8,42.8,71,30.03,10.0,SSE,11.5,-,N/A,,Clear,150,2013-11-17 05:35:00
12:55 AM,53.6,42.8,67,30.02,10.0,SSE,11.5,-,N/A,,Scattered Clouds,150,2013-11-17 05:55:00
1:15 AM,53.6,42.8,67,30.02,10.0,SE,11.5,-,N/A,,Mostly Cloudy,140,2013-11-17 06:15:00
1:35 AM,51.8,42.8,71,30.01,10.0,SE,11.5,16.1,N/A,,Scattered Clouds,130,2013-11-17 06:35:00
1:55 AM,51.8,42.8,71,30.02,10.0,SE,10.4,17.3,N/A,,Scattered Clouds,140,2013-11-17 06:55:00
2:15 AM,51.8,42.8,71,30.01,10.0,SE,12.7,-,N/A,,Mostly Cloudy,140,2013-11-17 07:15:00
2:35 AM,51.8,42.8,71,30.01,10.0,SSE,10.4,-,N/A,,Overcast,150,2013-11-17 07:35:00
2:55 AM,51.8,44.6,76,30.01,10.0,SSE,11.5,17.3,N/A,,Overcast,150,2013-11-17 07:55:00
3:15 AM,50.0,44.6,82,29.99,10.0,SE,11.5,-,0.03,,Overcast,140,2013-11-17 08:15:00
3:35 AM,48.2,44.6,87,29.98,7.0,SE,10.4,-,0.08,,Overcast,130,2013-11-17 08:35:00
3:55 AM,50.0,46.4,87,29.98,10.0,SSE,10.4,-,0.08,,Overcast,150,2013-11-17 08:55:00
4:15 AM,50.0,46.4,87,29.98,10.0,SSE,9.2,-,N/A,,Overcast,150,2013-11-17 09:15:00
4:35 AM,50.0,46.4,87,29.97,10.0,SSE,9.2,18.4,N/A,,Overcast,160,2013-11-17 09:35:00
4:55 AM,50.0,46.4,87,29.97,9.0,SSE,9.2,17.3,0.01,,Overcast,150,2013-11-17 09:55:00
5:15 AM,50.0,46.4,87,29.96,8.0,SE,9.2,-,N/A,,Overcast,140,2013-11-17 10:15:00
5:35 AM,50.0,46.4,87,29.97,10.0,SSE,13.8,18.4,0.01,,Overcast,160,2013-11-17 10:35:00
5:55 AM,50.0,46.4,87,29.96,10.0,SSE,9.2,-,0.02,,Overcast,150,2013-11-17 10:55:00
6:15 AM,50.0,46.4,87,29.96,8.0,SSE,10.4,-,0.03,,Overcast,160,2013-11-17 11:15:00
6:35 AM,50.0,46.4,87,29.97,10.0,SSE,12.7,17.3,0.05,,Overcast,160,2013-11-17 11:35:00
6:55 AM,50.0,46.4,87,29.97,10.0,SSE,11.5,-,0.07,,Overcast,160,2013-11-17 11:55:00
7:15 AM,50.0,46.4,87,29.98,10.0,South,10.4,-,0.03,,Overcast,170,2013-11-17 12:15:00
7:35 AM,51.8,46.4,82,29.97,9.0,SSE,12.7,-,0.10,,Overcast,160,2013-11-17 12:35:00
7:55 AM,51.8,48.2,88,29.97,7.0,SSE,11.5,-,0.21,,Overcast,160,2013-11-17 12:55:00
8:15 AM,51.8,48.2,88,29.95,9.0,SE,11.5,17.3,0.03,,Overcast,140,2013-11-17 13:15:00
8:35 AM,51.8,48.2,88,29.94,9.0,SE,15.0,18.4,0.04,,Overcast,140,2013-11-17 13:35:00
8:55 AM,51.8,48.2,88,29.94,10.0,SSE,17.3,25.3,0.05,,Overcast,160,2013-11-17 13:55:00
9:15 AM,51.8,48.2,88,29.94,10.0,SSE,15.0,20.7,N/A,,Overcast,160,2013-11-17 14:15:00
9:35 AM,51.8,48.2,88,29.93,9.0,South,18.4,23.0,0.01,,Overcast,170,2013-11-17 14:35:00
9:55 AM,53.6,48.2,82,29.93,10.0,South,13.8,21.9,0.02,,Overcast,170,2013-11-17 14:55:00
10:15 AM,53.6,48.2,82,29.91,10.0,SSE,13.8,-,N/A,,Overcast,160,2013-11-17 15:15:00
10:35 AM,53.6,50.0,88,29.91,10.0,South,13.8,20.7,N/A,,Overcast,170,2013-11-17 15:35:00
10:55 AM,53.6,50.0,88,29.91,10.0,South,13.8,-,N/A,,Overcast,170,2013-11-17 15:55:00
11:15 AM,53.6,50.0,88,29.90,10.0,South,16.1,21.9,N/A,,Overcast,180,2013-11-17 16:15:00
11:35 AM,55.4,50.0,82,29.89,10.0,South,18.4,24.2,N/A,,Overcast,170,2013-11-17 16:35:00
11:55 AM,55.4,51.8,88,29.89,10.0,South,16.1,21.9,N/A,,Overcast,180,2013-11-17 16:55:00
12:15 PM,55.4,51.8,88,29.88,10.0,South,17.3,23.0,0.01,,Overcast,180,2013-11-17 17:15:00
12:35 PM,55.4,51.8,88,29.86,10.0,South,15.0,20.7,0.01,,Overcast,170,2013-11-17 17:35:00
12:55 PM,55.4,51.8,88,29.84,10.0,South,17.3,23.0,0.01,,Overcast,170,2013-11-17 17:55:00
1:15 PM,55.4,51.8,88,29.85,10.0,South,20.7,25.3,N/A,,Overcast,170,2013-11-17 18:15:00
1:35 PM,55.4,51.8,88,29.83,10.0,South,19.6,27.6,N/A,,Overcast,170,2013-11-17 18:35:00
1:55 PM,55.4,51.8,88,29.82,10.0,South,17.3,23.0,N/A,,Overcast,170,2013-11-17 18:55:00
2:15 PM,55.4,51.8,88,29.80,10.0,SSE,15.0,21.9,N/A,,Overcast,160,2013-11-17 19:15:00
2:35 PM,57.2,51.8,82,29.78,10.0,SSE,18.4,29.9,N/A,,Overcast,160,2013-11-17 19:35:00
2:55 PM,57.2,53.6,88,29.78,10.0,South,19.6,25.3,N/A,,Overcast,170,2013-11-17 19:55:00
3:15 PM,57.2,53.6,88,29.75,10.0,SSE,16.1,26.5,0.01,,Overcast,160,2013-11-17 20:15:00
3:35 PM,57.2,53.6,88,29.76,10.0,South,17.3,24.2,0.01,,Overcast,180,2013-11-17 20:35:00
3:55 PM,57.2,53.6,88,29.74,10.0,South,19.6,28.8,0.01,,Overcast,180,2013-11-17 20:55:00
4:15 PM,57.2,53.6,88,29.73,10.0,South,17.3,27.6,0.03,,Overcast,180,2013-11-17 21:15:00
4:35 PM,57.2,53.6,88,29.71,10.0,SSE,19.6,25.3,0.04,,Overcast,160,2013-11-17 21:35:00
4:55 PM,57.2,53.6,88,29.69,10.0,South,17.3,24.2,0.04,,Overcast,170,2013-11-17 21:55:00
5:15 PM,57.2,53.6,88,29.69,10.0,SSE,18.4,25.3,N/A,,Overcast,160,2013-11-17 22:15:00
5:35 PM,57.2,53.6,88,29.69,10.0,South,23.0,27.6,N/A,,Overcast,170,2013-11-17 22:35:00
5:55 PM,57.2,53.6,88,29.68,10.0,South,18.4,25.3,N/A,,Overcast,170,2013-11-17 22:55:00
6:15 PM,57.2,53.6,88,29.66,10.0,South,19.6,28.8,N/A,,Overcast,170,2013-11-17 23:15:00
6:35 PM,57.2,53.6,88,29.63,10.0,South,19.6,29.9,N/A,,Overcast,170,2013-11-17 23:35:00
6:55 PM,57.2,53.6,88,29.63,10.0,South,21.9,32.2,N/A,,Overcast,190,2013-11-17 23:55:00
7:15 PM,57.2,53.6,88,29.63,10.0,South,23.0,33.4,N/A,,Overcast,180,2013-11-18 00:15:00
7:35 PM,57.2,53.6,88,29.60,10.0,SSE,16.1,28.8,0.04,,Overcast,160,2013-11-18 00:35:00
7:55 PM,57.2,53.6,88,29.57,10.0,South,23.0,28.8,0.04,,Overcast,170,2013-11-18 00:55:00
8:15 PM,57.2,53.6,88,29.55,10.0,South,19.6,29.9,N/A,,Overcast,170,2013-11-18 01:15:00
8:35 PM,57.2,53.6,88,29.53,9.0,South,18.4,24.2,0.02,,Overcast,170,2013-11-18 01:35:00
8:55 PM,57.2,53.6,88,29.52,10.0,South,19.6,33.4,0.02,,Overcast,170,2013-11-18 01:55:00
9:15 PM,57.2,53.6,88,29.51,10.0,South,25.3,33.4,N/A,,Overcast,170,2013-11-18 02:15:00
9:35 PM,57.2,53.6,88,29.50,10.0,South,23.0,35.7,0.04,,Mostly Cloudy,190,2013-11-18 02:35:00
9:55 PM,57.2,51.8,82,29.55,9.0,West,18.4,47.2,0.07,,Overcast,260,2013-11-18 02:55:00
10:15 PM,53.6,46.4,77,29.53,10.0,SW,12.7,21.9,N/A,,Overcast,220,2013-11-18 03:15:00
10:35 PM,53.6,46.4,77,29.54,10.0,SW,17.3,26.5,N/A,,Overcast,230,2013-11-18 03:35:00
10:55 PM,53.6,44.6,72,29.53,10.0,SW,17.3,25.3,N/A,,Overcast,220,2013-11-18 03:55:00
11:15 PM,53.6,42.8,67,29.53,10.0,SW,11.5,20.7,N/A,,Overcast,220,2013-11-18 04:15:00
11:35 PM,53.6,42.8,67,29.53,10.0,WSW,12.7,27.6,N/A,,Overcast,240,2013-11-18 04:35:00
11:55 PM,53.6,44.6,72,29.54,10.0,SW,16.1,25.3,N/A,,Mostly Cloudy,230,2013-11-18 04:55:00